DMSP 5D-2 F13 DEB, 42258

Orbit data source: Space-Track

DMSP 5D-2 F13 DEB, 42258 is space debris in SSO originally from a launch on Fri, 24 Mar 1995 UTC launched from the Air Force Western Test Range (AFWTR). Debris objects in space refer to the collection of defunct objects orbiting the Earth. Examples of debris include non-operational satellites, rocket bodies, and fragments generated from explosions, collisions, or faulty payload assembly.

Loading next visibility...
Identifier
42258, 1995-015FY
Orbit
SSO
Country
Flag of USUS
Related business
Manufacturer
Unknown
Mission
Spacecraft
Bus & Motor
Unknown
Mass
Unknown
Launch date (UTC)
1995-03-24 (31 years ago)
Launch vehicle
Unknown
Launch site
Air Force Western Test Range (AFWTR)
Object type
Payload
Rocket body
Debris
Shape & HBR
Unknown shape, 0.1 m
Radar Cross Section
Small (<0.1 m²)

Expand to show TLE details & history
Last TLE update: 20 hours ago

TLE from 20 hours ago
0 DMSP 5D-2 F13 DEB
1 42258U 95015FY  25348.93819139  .00004050  00000-0  24368-2 0  9990
2 42258  98.7122 158.7276 0130131 213.5100 145.7785 14.03180550521630
Epoch: 2025-12-14T22:30Z
TLE epoch observation values (Epoch: 2025-12-14T22:30:59.736Z)
Latitude
-0.00003°
Longitude
97.13477°
Altitude
964.22 km
Speed
7.33 km/s
True Right ascension
10h 34m 54s
True Declination
0° 00' 00"
Sunlit
Object was in daylight at epoch
Visualization orbit readout
Latitude
Unknown
Longitude
Unknown
Altitude
Unknown
Speed
Unknown
Apparent Right ascension
Unknown
Apparent Declination
Unknown
Sunlit
N/A
Visualization observer readout
Local Sidereal Time
17:08:45
Azimuth
Unknown
Elevation
Unknown
Doppler factor
Unknown
Orbital elements
Apogee altitude
974.433 km
Perigee altitude
785.532 km
Semi-major axis
7,258.12 km
Eccentricity
0.01301
Inclination
98.7122°
RAAN
158.7276°
Arg. of periapsis
213.51°
True anomaly
146.60597°
Mean anomaly
145.7785°
Eccentric anomaly
146.19334°
Mean motion
3.51 °/min
Orbital period
102.56 mins
BSTAR
0.0024368
Loading maneuver chart data...
Computing Atmospheric mass density...

Documentation

Showing up to 5 results
|